#timestamp,LO_Frequency,Hit,StdDev 
1587484815.9,286046999.2,N
1587484835.7,286046997.3,N
1587484855.5,286046997.7,N
1587484875.4,286046999.6,N
1587484895.2,286047000.6,N
1587484915.0,286046998.5,N
1587484916.0,286046998.5,N
1587484935.8,286046997.3,N
1587484955.6,286046995.4,Y
1587484975.5,286046997.5,P
1587484995.3,286046996.9,P
1587485015.1,286046996.8,P
1587485035.9,286046999.4,N
1587485055.7,286046995.5,Y
1587485075.6,286046999.5,P
1587485095.4,286046999.2,N
1587485115.2,286046997.3,P
1587485135.1,286046996.6,Y
1587485136.0,286046996.6,P
1587485155.8,286046998.4,N
1587485175.7,286047001.4,N
1587485195.5,286047004.4,N
1587485215.3,286046999.7,N
1587485235.2,286047002.1,N
1587485255.0,286047002.1,N
1587485255.9,286047002.1,N
1587485275.8,286047000.2,N
1587485295.6,286046999.7,N
1587485315.4,286047002.4,N
1587485335.3,286047002.6,N
1587485355.1,286046998.1,N
1587485375.8,286047001.2,N
1587485395.7,286046999.1,N
1587485415.5,286046996.6,N
1587485435.4,286047000.5,N
1587485455.2,286047000.7,N
1587485475.0,286046998.3,N
1587485475.9,286046998.3,N
1587485495.8,286046999.3,N
1587485515.6,286046995.1,N
1587485535.5,286046997.4,N
1587485555.3,286046998.8,N
1587485575.1,286046997.4,N
1587485595.9,286047000.6,N
1587485615.7,286047002.0,N
1587485635.6,286047001.2,N
1587485655.4,286046998.3,N
1587485675.2,286047003.9,N
1587485695.1,286047004.3,N
1587485696.0,286047004.3,N
1587485715.8,286047002.3,N
1587485735.8,286046998.3,N
1587485755.6,286047000.7,N
1587485775.5,286047002.4,N
1587485795.3,286046999.9,N
1587485815.1,286046998.7,N
1587485835.9,286046998.6,N
1587485855.7,286047000.1,N
1587485875.6,286046999.8,N
1587485895.4,286047002.3,N
1587485915.2,286046998.2,N
1587485935.1,286047002.6,N
1587485936.0,286047002.6,N
1587485955.8,286047002.6,N
1587485975.6,286047002.0,N
1587485995.5,286046999.8,N
1587486015.3,286047001.7,N
1587486035.2,286047001.7,N
1587486055.9,286047001.5,N
1587486075.7,286047002.3,N
1587486095.6,286047000.8,N
1587486115.4,286047000.0,N
1587486135.3,286047002.7,N
1587486155.1,286047002.4,N
1587486156.0,286047002.4,N
1587486175.8,286046999.0,N
1587486195.7,286046998.3,N
1587486215.5,286047001.5,N
1587486235.3,286047002.8,N
1587486255.2,286047001.5,N
1587486275.0,286047002.2,N
1587486275.9,286047002.2,N
1587486295.8,286047000.2,N
1587486315.6,286047002.0,N
1587486335.5,286047001.5,N
1587486355.3,286047003.2,N
1587486375.1,286047003.2,N
1587486395.9,286047005.1,Y
1587486415.7,286047005.0,P
1587486435.6,286047004.5,N
1587486455.4,286047004.6,N
1587486475.2,286047005.1,Y
1587486495.1,286047001.3,P
1587486496.0,286047001.3,N
1587486515.8,286047001.7,N
1587486535.7,286047003.9,Y
1587486555.5,286047000.3,P
1587486575.3,286046999.4,N
1587486595.2,286046998.0,N
1587486615.0,286046997.6,N
1587486615.9,286046997.6,N
1587486635.8,286046994.9,Y
1587486655.6,286046995.7,P
1587486675.4,286046995.6,N
1587486695.3,286046996.3,N
1587486715.1,286046991.8,Y
1587486735.9,286047000.3,P
1587486755.7,286047000.2,N
1587486775.5,286047001.1,N
1587486795.4,286047001.9,N
1587486815.2,286047002.8,N
1587486835.0,286047002.8,N
1587486836.0,286047002.8,N
1587486855.8,286047000.4,N
1587486875.6,286047000.7,N
1587486895.5,286047000.9,N
1587486915.3,286046996.5,N
1587486935.1,286046996.8,N
1587486955.9,286046995.4,N
1587486975.7,286046995.8,N
1587486995.6,286046999.0,N
1587487015.4,286046998.5,N
1587487035.2,286047001.1,N
1587487055.1,286047000.7,N
1587487056.0,286047000.7,N
1587487075.8,286047000.5,N
1587487095.7,286047000.4,N
1587487115.5,286047002.2,N
1587487135.3,286046999.3,N
1587487155.2,286046998.5,N
1587487175.0,286046998.1,N
1587487175.9,286046998.1,N
1587487195.8,286047002.6,N
1587487215.6,286047004.4,N
1587487235.4,286047005.1,N
1587487255.3,286047007.1,N
1587487275.1,286047003.0,N
1587487295.9,286047003.6,N
1587487315.7,286047001.6,N
1587487335.5,286047004.0,N
1587487355.4,286047001.8,N
1587487375.2,286047001.9,N
1587487395.0,286047001.6,N
1587487396.0,286047001.6,N
1587487415.8,286047002.5,N
1587487435.6,286046998.7,N
1587487455.5,286046996.5,N
1587487475.3,286046997.4,N
1587487495.1,286046999.3,N
1587487515.9,286046999.2,N
1587487535.7,286046999.3,N
1587487555.6,286046999.4,N
1587487575.4,286046999.9,N
1587487595.2,286047004.3,N
1587487615.1,286047001.4,N
1587487616.0,286047001.4,N
1587487635.8,286047002.2,N
1587487655.7,286047001.7,N
1587487675.5,286047000.4,N
1587487695.3,286046999.4,N
1587487715.2,286046998.0,N
1587487735.0,286046996.2,N
1587487735.9,286046996.2,N
1587487755.7,286046995.5,N
1587487775.6,286046998.0,N
1587487795.4,286046995.7,N
1587487815.3,286046993.5,N
1587487835.1,286046995.8,N
1587487855.8,286046994.7,N
1587487875.7,286046992.2,N
1587487895.5,286046994.7,N
1587487915.4,286046992.5,N
1587487935.2,286046993.1,N
1587487955.0,286046992.3,N
1587487955.9,286046992.3,N
1587487975.8,286046993.6,N
1587487995.6,286046996.2,N
1587488015.4,286046995.5,N
1587488035.3,286046997.5,N
1587488055.1,286046993.5,N
1587488075.9,286046992.4,N
1587488095.7,286046992.9,N
1587488115.5,286046994.9,N
1587488135.4,286046999.6,N
1587488155.2,286046999.0,N
1587488175.1,286046997.1,N
1587488176.0,286046997.1,N
1587488195.8,286046999.5,N
1587488215.6,286046999.1,N
1587488235.5,286046999.2,N
1587488255.3,286046999.3,N
1587488275.1,286046997.1,N
1587488295.9,286046997.0,N
1587488315.7,286046996.5,N
1587488335.6,286046999.5,N
1587488355.4,286046996.6,N
1587488375.2,286046997.7,N
1587488395.1,286046996.9,N
1587488396.0,286046996.9,N
